Weather History for Del Rio, TX

Change the Weather History Date:

Thursday, July 25, 2013

  Actual Average Record
Temperature  
Mean Temperature 89 °F 86 °F  
Max Temperature 99 °F 97 °F 107 °F (1944)
Min Temperature 78 °F 75 °F 67 °F (1984)
Degree Days  
Heating Degree Days 0 0  
Month to date heating degree days 0 0  
Since 1 June heating degree days 0 0  
Since 1 July heating degree days 0 0  
Cooling Degree Days 24 21  
Month to date cooling degree days 508 519  
Year to date cooling degree days 2039 1849  
Since 1 June cooling degree days 1133 1090  
Growing Degree Days 39 (Base 50)    
Moisture  
Dew Point 67 °F    
Average Humidity 52    
Maximum Humidity 79    
Minimum Humidity 24    
Precipitation  
Precipitation 0.00 in 0.05 in 0.65 in (1984)
Month to date precipitation 2.77 1.45  
Year to date precipitation 7.75 11.00  
Sea Level Pressure  
Sea Level Pressure 29.92 in    
Wind  
Wind Speed 8 mph (ESE)    
Max Wind Speed 17 mph    
Max Gust Speed 22 mph    
Visibility 10 miles    
Events      
T = Trace of Precipitation, MM = Missing Value Source: NWS Daily Summary

Daily Weather History Graph

Daily Weather History Graph

Search for Another Location

Airport:

Trip Planner

Search our weather history database for the weather conditions in past years. The results will help you decide how hot, cold, wet, or windy it might be!

Date:

Astronomy

Jul. 25, 2013 Rise Set
Actual Time 6:59 AM CDT 8:40 PM CDT
Civil Twilight 6:33 AM CDT 9:06 PM CDT
Nautical Twilight 6:02 AM CDT 9:37 PM CDT
Astronomical Twilight 5:29 AM CDT 10:10 PM CDT
Moon 10:45 PM CDT (7/25) 10:10 AM CDT (7/25)
Length of Visible Light 14h 32m
Length of Day
13h 40m
Waning Gibbous, 88% of the Moon is Illuminated
Jul 25
Waning Gibbous
Jul 29
Last Quarter
Aug 6
New
Aug 14
First Quarter
Aug 20
Full

Hourly Weather History & Observations

Time (CDT) Temp. Heat Index Dew Point Humidity Pressure Visibility Wind Dir Wind Speed Gust Speed Precip Events Conditions
12:53 AM 84.9 °F 85.0 °F 61.0 °F 44% 29.86 in 10.0 mi East 10.4 mph - N/A   Clear
1:53 AM 84.9 °F 87.1 °F 66.0 °F 53% 29.88 in 10.0 mi ESE 8.1 mph - N/A   Clear
2:53 AM 82.9 °F 86.5 °F 69.1 °F 63% 29.88 in 10.0 mi East 9.2 mph - N/A   Clear
3:53 AM 82.9 °F 88.0 °F 72.0 °F 69% 29.89 in 10.0 mi East 10.4 mph - N/A   Clear
4:53 AM 82.0 °F 86.7 °F 72.0 °F 71% 29.90 in 10.0 mi East 10.4 mph - N/A   Clear
5:53 AM 80.1 °F 83.8 °F 72.0 °F 76% 29.92 in 10.0 mi ESE 5.8 mph - N/A   Clear
6:53 AM 79.0 °F - 72.0 °F 79% 29.94 in 10.0 mi East 5.8 mph - N/A   Clear
7:53 AM 79.0 °F - 72.0 °F 79% 29.95 in 10.0 mi East 8.1 mph - N/A   Clear
8:53 AM 80.1 °F 83.8 °F 72.0 °F 76% 29.96 in 10.0 mi ESE 9.2 mph - N/A   Clear
9:53 AM 82.0 °F 86.3 °F 71.1 °F 69% 29.97 in 10.0 mi SE 12.7 mph - N/A   Clear
10:53 AM 84.0 °F 89.0 °F 71.1 °F 65% 29.98 in 10.0 mi SSE 5.8 mph - N/A   Clear
11:53 AM 87.1 °F 92.8 °F 71.1 °F 59% 29.98 in 10.0 mi Variable 5.8 mph - N/A   Clear
12:53 PM 89.1 °F 95.0 °F 71.1 °F 55% 29.97 in 10.0 mi South 9.2 mph - N/A   Clear
1:53 PM 93.0 °F 96.4 °F 66.9 °F 42% 29.95 in 10.0 mi ESE 8.1 mph - N/A   Clear
2:53 PM 95.0 °F 97.9 °F 66.0 °F 38% 29.93 in 10.0 mi ESE 10.4 mph 17.3 mph N/A   Clear
3:53 PM 97.0 °F 96.9 °F 60.1 °F 29% 29.91 in 10.0 mi SE 8.1 mph - N/A   Clear
4:53 PM 99.0 °F 97.3 °F 55.0 °F 23% 29.91 in 10.0 mi SE 13.8 mph 19.6 mph N/A   Clear
5:53 PM 97.0 °F 96.5 °F 59.0 °F 28% 29.89 in 10.0 mi SE 11.5 mph 19.6 mph N/A   Clear
6:53 PM 95.0 °F 95.6 °F 62.1 °F 33% 29.88 in 10.0 mi SSE 12.7 mph - N/A   Clear
7:53 PM 93.9 °F 96.1 °F 64.9 °F 38% 29.89 in 10.0 mi SE 8.1 mph - N/A   Clear
8:53 PM 91.9 °F 94.1 °F 64.9 °F 41% 29.89 in 10.0 mi ESE 4.6 mph - N/A   Clear
9:53 PM 90.0 °F 91.7 °F 64.9 °F 43% 29.89 in 10.0 mi East 3.5 mph - N/A   Clear
10:53 PM 88.0 °F 90.3 °F 66.0 °F 48% 29.91 in 10.0 mi East 4.6 mph - N/A   Clear
11:53 PM 87.1 °F 88.9 °F 64.9 °F 48% 29.92 in 10.0 mi East 4.6 mph - N/A   Clear